FW4267 Weather Reports


Display with metric or nautical units.
time (UTC)temp
F
wind
direction
speed
MPH
gust
MPH
rain 1hr
in
rain 24hr
in
rain mn
in
humidity
%
barometer
mb
20260903214217 67 281 0.0 2.0 0.00 0.00 0.00 63 1022.1
20260903214029 67 281 0.0 2.0 0.00 0.00 0.00 62 1022.1
20260903213217 68 281 1.0 2.0 0.00 0.00 0.00 62 1022.1
20260903213027 68 281 0.0 2.0 0.00 0.00 0.00 60 1022.2
20260903212219 69 281 1.0 2.0 0.00 0.00 0.00 60 1022.1
20260903211717 69 281 2.0 2.0 0.00 0.00 0.00 59 1022.1
20260903211230 70 279 1.0 2.0 0.00 0.00 0.00 59 1022.1
20260903210719 71 279 1.0 1.0 0.00 0.00 0.00 56 1022.1
20260903210217 71 279 1.0 2.0 0.00 0.00 0.00 55 1022.1
20260903205719 70 279 1.0 2.0 0.00 0.00 0.00 56 1022.1
20260903205216 70 279 1.0 1.0 0.00 0.00 0.00 57 1022.1
20260903205029 70 279 1.0 2.0 0.00 0.00 0.00 58 1022.1
20260903204527 70 279 1.0 2.0 0.00 0.00 0.00 59 1022.2
20260903203717 70 278 2.0 2.0 0.00 0.00 0.00 59 1022.1
20260903203650 71 279 1.0 3.0 0.00 0.00 0.00 58 1022.2
20260903203645 71 276 1.0 2.0 0.00 0.00 0.00 59 1022.2
20260903202217 71 283 2.0 3.0 0.00 0.00 0.00 57 1022.2
20260903201716 71 285 2.0 3.0 0.00 0.00 0.00 58 1022.2
20260903201228 71 283 2.0 2.0 0.00 0.00 0.00 58 1022.2
20260903200719 71 282 2.0 2.0 0.00 0.00 0.00 58 1022.2
20260903200217 71 281 2.0 3.0 0.00 0.00 0.00 58 1022.1
20260903195718 71 283 2.0 3.0 0.00 0.00 0.00 57 1022.1
20260903195218 72 283 2.0 2.0 0.00 0.00 0.00 56 1022.1
20260903194717 73 283 2.0 2.0 0.00 0.00 0.00 54 1022.1
20260903194524 74 282 1.0 2.0 0.00 0.00 0.00 54 1022.0
20260903193715 74 281 2.0 2.0 0.00 0.00 0.00 51 1022.0
20260903193215 75 281 1.0 2.0 0.00 0.00 0.00 50 1022.0
20260903192716 76 283 2.0 2.0 0.00 0.00 0.00 49 1021.9
20260903192215 75 283 1.0 2.0 0.00 0.00 0.00 49 1021.8
20260903191715 75 283 2.0 2.0 0.00 0.00 0.00 51 1021.9
20260903191214 76 281 2.0 2.0 0.00 0.00 0.00 50 1021.8
20260903190850 78 276 1.0 1.0 0.00 0.00 0.00 46 1021.8
20260903190816 77 276 2.0 2.0 0.00 0.00 0.00 48 1021.8
20260903185715 79 276 0.0 0.0 0.00 0.00 0.00 45 1021.7
20260903185217 79 276 0.0 0.0 0.00 0.00 0.00 45 1021.6
20260903184715 79 276 0.0 0.0 0.00 0.00 0.00 44 1021.6
20260903184214 79 276 0.0 1.0 0.00 0.00 0.00 43 1021.6
20260903183716 79 275 0.0 1.0 0.00 0.00 0.00 43 1021.6
20260903183214 80 276 0.0 2.0 0.00 0.00 0.00 44 1021.6
20260903182713 81 290 1.0 2.0 0.00 0.00 0.00 41 1021.6
20260903182212 82 290 1.0 2.0 0.00 0.00 0.00 40 1021.6
20260903181716 82 290 1.0 1.0 0.00 0.00 0.00 39 1021.6
20260903181213 82 290 1.0 1.0 0.00 0.00 0.00 39 1021.6
20260903180714 83 290 1.0 1.0 0.00 0.00 0.00 39 1021.6
20260903180213 82 290 1.0 1.0 0.00 0.00 0.00 39 1021.6
20260903175713 83 290 0.0 1.0 0.00 0.00 0.00 38 1021.6
20260903175212 83 290 0.0 0.0 0.00 0.00 0.00 38 1021.6
20260903174713 83 290 0.0 1.0 0.00 0.00 0.00 37 1021.7
20260903174214 83 290 0.0 1.0 0.00 0.00 0.00 37 1021.7
20260903173712 83 290 0.0 1.0 0.00 0.00 0.00 37 1021.7
20260903173215 83 290 0.0 1.0 0.00 0.00 0.00 37 1021.7
20260903172712 83 290 0.0 0.0 0.00 0.00 0.00 38 1021.7
20260903172212 84 290 0.0 0.0 0.00 0.00 0.00 37 1021.7
20260903171712 84 290 0.0 0.0 0.00 0.00 0.00 37 1021.6
20260903171211 84 290 0.0 1.0 0.00 0.00 0.00 36 1021.6
20260903170726 84 290 0.0 1.0 0.00 0.00 0.00 35 1021.6
20260903170224 85 290 0.0 1.0 0.00 0.00 0.00 35 1021.7
20260903165715 85 290 0.0 1.0 0.00 0.00 0.00 36 1021.7
20260903165522 85 290 0.0 1.0 0.00 0.00 0.00 36 1021.7
20260903164712 85 290 0.0 1.0 0.00 0.00 0.00 35 1021.7
20260903164211 85 290 0.0 1.0 0.00 0.00 0.00 35 1021.7
20260903163712 85 290 0.0 1.0 0.00 0.00 0.00 35 1021.7
20260903163211 86 290 0.0 1.0 0.00 0.00 0.00 36 1021.8
20260903162710 86 290 0.0 1.0 0.00 0.00 0.00 35 1021.8
20260903162211 86 286 0.0 1.0 0.00 0.00 0.00 34 1021.8
20260903162019 86 290 0.0 2.0 0.00 0.00 0.00 33 1021.8
20260903161213 86 353 0.0 2.0 0.00 0.00 0.00 33 1021.8
20260903160844 86 20 0.0 1.0 0.00 0.00 0.00 32 1021.7
20260903160812 86 20 0.0 1.0 0.00 0.00 0.00 33 1021.8
20260903155712 86 20 0.0 1.0 0.00 0.00 0.00 33 1021.7
20260903155210 87 4 0.0 1.0 0.00 0.00 0.00 33 1021.8
20260903154709 87 109 0.0 1.0 0.00 0.00 0.00 32 1021.9
20260903154307 87 110 0.0 1.0 0.00 0.00 0.00 33 1021.9
20260903153210 88 16 0.0 2.0 0.00 0.00 0.00 32 1022.0
20260903152711 88 63 0.0 1.0 0.00 0.00 0.00 32 1022.1
20260903152210 89 89 0.0 1.0 0.00 0.00 0.00 31 1022.1
20260903151709 89 161 0.0 0.0 0.00 0.00 0.00 32 1022.0
20260903151209 88 49 0.0 2.0 0.00 0.00 0.00 33 1022.1
20260903150723 88 49 0.0 4.0 0.00 0.00 0.00 32 1022.0
20260903150209 89 307 1.0 4.0 0.00 0.00 0.00 32 1022.1
20260903145709 89 16 1.0 2.0 0.00 0.00 0.00 33 1022.1
20260903145209 89 124 0.0 3.0 0.00 0.00 0.00 33 1022.1
20260903144711 89 283 0.0 3.0 0.00 0.00 0.00 34 1022.1
20260903144522 89 99 0.0 2.0 0.00 0.00 0.00 34 1022.2
20260903144025 89 327 0.0 2.0 0.00 0.00 0.00 34 1022.2
20260903143526 90 351 0.0 2.0 0.00 0.00 0.00 34 1022.3
20260903142710 89 358 0.0 4.0 0.00 0.00 0.00 35 1022.2
20260903142522 90 321 1.0 4.0 0.00 0.00 0.00 35 1022.3
20260903141836 89 278 0.0 4.0 0.00 0.00 0.00 37 1022.3
20260903141805 89 276 0.0 4.0 0.00 0.00 0.00 35 1022.2
20260903140708 90 34 0.0 4.0 0.00 0.00 0.00 37 1022.3
20260903140208 89 116 0.0 4.0 0.00 0.00 0.00 37 1022.4
20260903135710 90 63 0.0 2.0 0.00 0.00 0.00 37 1022.3
20260903135524 90 96 0.0 1.0 0.00 0.00 0.00 36 1022.5
20260903134707 90 55 0.0 1.0 0.00 0.00 0.00 36 1022.5
20260903134209 89 55 0.0 2.0 0.00 0.00 0.00 36 1022.6
20260903133706 89 107 0.0 4.0 0.00 0.00 0.00 37 1022.6
20260903133208 89 116 3.0 4.0 0.00 0.00 0.00 37 1022.7
20260903132706 89 75 0.0 3.0 0.00 0.00 0.00 39 1022.8
20260903132210 88 75 1.0 5.0 0.00 0.00 0.00 39 1022.7
20260903132019 88 72 1.0 5.0 0.00 0.00 0.00 39 1022.8
20260903131208 88 71 0.0 3.0 0.00 0.00 0.00 40 1022.8
20260903130705 88 69 1.0 3.0 0.00 0.00 0.00 40 1022.8
20260903130208 88 83 0.0 3.0 0.00 0.00 0.00 40 1022.9
20260903125706 88 285 1.0 3.0 0.00 0.00 0.00 41 1022.9
20260903125205 87 118 0.0 6.0 0.00 0.00 0.00 43 1022.9
20260903124707 87 106 2.0 6.0 0.00 0.00 0.00 41 1022.9
20260903124205 87 316 0.0 4.0 0.00 0.00 0.00 43 1023.0
20260903123706 87 110 1.0 4.0 0.00 0.00 0.00 41 1023.1
20260903123206 87 72 0.0 3.0 0.00 0.00 0.00 42 1023.1
20260903123013 86 100 0.0 3.0 0.00 0.00 0.00 43 1023.1
20260903122205 86 72 1.0 4.0 0.00 0.00 0.00 43 1023.2
20260903121704 86 104 2.0 4.0 0.00 0.00 0.00 43 1023.2
20260903121205 85 82 1.0 5.0 0.00 0.00 0.00 45 1023.2
20260903120720 85 90 2.0 5.0 0.00 0.00 0.00 44 1023.3
20260903120511 86 85 2.0 5.0 0.00 0.00 0.00 43 1023.4
20260903115719 86 100 0.0 5.0 0.00 0.00 0.00 43 1023.4
20260903115207 87 75 0.0 4.0 0.00 0.00 0.00 42 1023.4
20260903114704 85 89 0.0 6.0 0.00 0.00 0.00 45 1023.5
20260903114218 86 104 3.0 6.0 0.00 0.00 0.00 44 1023.5
20260903113705 87 128 1.0 2.0 0.00 0.00 0.00 44 1023.5
20260903113204 86 52 0.0 2.0 0.00 0.00 0.00 45 1023.6
20260903112704 85 96 1.0 2.0 0.00 0.00 0.00 44 1023.6
20260903112204 85 227 0.0 1.0 0.00 0.00 0.00 46 1023.7
20260903111705 84 226 0.0 4.0 0.00 0.00 0.00 47 1023.8
20260903111203 83 63 2.0 5.0 0.00 0.00 0.00 47 1023.9
20260903111018 83 111 2.0 5.0 0.00 0.00 0.00 48 1023.9
20260903110514 84 278 0.0 4.0 0.00 0.00 0.00 46 1024.0
20260903105703 83 71 1.0 4.0 0.00 0.00 0.00 47 1024.1
20260903105204 83 92 2.0 4.0 0.00 0.00 0.00 47 1024.1
20260903104703 83 106 2.0 4.0 0.00 0.00 0.00 47 1024.1
20260903104203 82 75 2.0 4.0 0.00 0.00 0.00 49 1024.2
20260903103702 82 93 1.0 5.0 0.00 0.00 0.00 48 1024.4
20260903103204 82 118 2.0 5.0 0.00 0.00 0.00 48 1024.5
20260903102715 82 104 1.0 3.0 0.00 0.00 0.00 49 1024.5
20260903102513 82 262 0.0 3.0 0.00 0.00 0.00 50 1024.5
20260903101702 82 92 0.0 1.0 0.00 0.00 0.00 49 1024.5
20260903101202 81 99 0.0 4.0 0.00 0.00 0.00 51 1024.5
20260903100703 80 102 1.0 4.0 0.00 0.00 0.00 51 1024.6
20260903100202 81 114 0.0 2.0 0.00 0.00 0.00 51 1024.6
20260903095703 80 97 0.0 4.0 0.00 0.00 0.00 55 1024.7
20260903095201 79 116 2.0 4.0 0.00 0.00 0.00 51 1024.8
20260903094704 78 102 1.0 2.0 0.00 0.00 0.00 53 1024.8
20260903094512 78 271 0.0 2.0 0.00 0.00 0.00 54 1024.7
20260903093703 78 278 1.0 2.0 0.00 0.00 0.00 52 1024.8
20260903093202 78 316 0.0 3.0 0.00 0.00 0.00 54 1024.9
20260903092704 78 278 0.0 3.0 0.00 0.00 0.00 56 1024.9
20260903092214 78 274 1.0 3.0 0.00 0.00 0.00 54 1024.8
20260903091700 78 99 1.0 4.0 0.00 0.00 0.00 56 1024.9
20260903091212 78 6 0.0 4.0 0.00 0.00 0.00 55 1025.0
20260903090714 78 309 1.0 3.0 0.00 0.00 0.00 56 1024.8
20260903090203 78 292 0.0 2.0 0.00 0.00 0.00 58 1024.9
20260903085702 77 292 0.0 3.0 0.00 0.00 0.00 57 1024.8
20260903085202 76 286 0.0 3.0 0.00 0.00 0.00 59 1024.8
20260903084700 76 90 0.0 2.0 0.00 0.00 0.00 60 1024.9
20260903084200 75 292 0.0 2.0 0.00 0.00 0.00 60 1024.7
20260903083702 75 3 0.0 3.0 0.00 0.00 0.00 61 1024.7
20260903083200 75 44 1.0 3.0 0.00 0.00 0.00 60 1024.8
20260903082701 74 293 0.0 1.0 0.00 0.00 0.00 61 1024.7
20260903082510 75 303 1.0 1.0 0.00 0.00 0.00 60 1024.8
20260903082017 74 299 0.0 2.0 0.00 0.00 0.00 63 1024.8
20260903081159 74 261 1.0 2.0 0.00 0.00 0.00 63 1024.8
20260903080700 74 237 0.0 2.0 0.00 0.00 0.00 64 1024.7
20260903080159 73 303 0.0 1.0 0.00 0.00 0.00 64 1024.8
20260903075658 73 319 0.0 3.0 0.00 0.00 0.00 67 1024.8
20260903075200 72 319 0.0 3.0 0.00 0.00 0.00 67 1024.8
20260903075013 71 285 0.0 3.0 0.00 0.00 0.00 68 1024.9
20260903074200 71 300 0.0 3.0 0.00 0.00 0.00 68 1024.9
20260903073658 71 310 0.0 2.0 0.00 0.00 0.00 67 1024.9
20260903073201 72 261 0.0 1.0 0.00 0.00 0.00 68 1024.9
20260903073007 71 259 0.0 1.0 0.00 0.00 0.00 69 1024.8
20260903072200 71 283 0.0 1.0 0.00 0.00 0.00 69 1024.8
20260903071657 70 282 0.0 1.0 0.00 0.00 0.00 70 1024.8
20260903071507 70 282 0.0 2.0 0.00 0.00 0.00 70 1024.8
20260903070658 71 271 0.0 2.0 0.00 0.00 0.00 69 1024.8
20260903070201 71 92 0.0 1.0 0.00 0.00 0.00 71 1024.9
20260903065658 70 92 0.0 1.0 0.00 0.00 0.00 72 1024.9
20260903065157 70 96 0.0 1.0 0.00 0.00 0.00 72 1024.9
20260903064658 70 106 0.0 1.0 0.00 0.00 0.00 72 1024.9
20260903064201 70 317 0.0 0.0 0.00 0.00 0.00 74 1024.9
20260903063827 68 313 0.0 0.0 0.00 0.00 0.00 79 1024.8
20260903063755 69 313 0.0 0.0 0.00 0.00 0.00 76 1024.8
20260903062657 66 313 0.0 0.0 0.00 0.00 0.00 82 1024.8
20260903062512 65 313 0.0 0.0 0.00 0.00 0.00 85 1024.7
20260903062004 64 276 0.0 0.0 0.00 0.00 0.00 85 1024.7
20260903061156 63 276 0.0 0.0 0.00 0.00 0.00 89 1024.5
20260903061001 62 276 0.0 0.0 0.00 0.00 0.00 90 1024.5
20260903060157 61 276 0.0 0.0 0.00 0.00 0.00 90 1024.4
20260903060005 60 276 0.0 0.0 0.00 0.00 0.00 89 1024.4
20260903055510 60 274 0.0 0.0 0.00 0.00 0.00 89 1024.4
20260903055006 60 274 0.0 0.0 0.00 0.00 0.00 89 1024.2
20260903054155 60 274 0.0 0.0 0.00 0.00 0.00 89 1024.1
20260903053657 60 274 0.0 0.0 0.00 0.00 0.00 88 1024.1
20260903053156 60 274 0.0 0.0 0.00 0.00 0.00 88 1024.0
20260903052658 60 274 0.0 0.0 0.00 0.00 0.00 88 1024.0
20260903052155 61 274 0.0 1.0 0.00 0.00 0.00 88 1023.9
20260903051658 61 274 0.0 1.0 0.00 0.00 0.00 88 1023.8
20260903051155 61 274 0.0 3.0 0.00 0.00 0.00 88 1023.8
20260903050707 60 275 0.0 3.0 0.00 0.00 0.00 89 1023.8
20260903050156 60 289 0.0 1.0 0.00 0.00 0.00 89 1023.7
20260903045655 60 289 0.0 1.0 0.00 0.00 0.00 90 1023.7
20260903045156 60 289 0.0 0.0 0.00 0.00 0.00 89 1023.7
20260903044657 60 289 0.0 0.0 0.00 0.00 0.00 88 1023.7
20260903044158 60 289 0.0 0.0 0.00 0.00 0.00 88 1023.7
20260903044002 60 289 0.0 0.0 0.00 0.00 0.00 88 1023.7
20260903043156 60 289 0.0 0.0 0.00 0.00 0.00 88 1023.7
20260903043005 60 289 0.0 0.0 0.00 0.00 0.00 87 1023.6
20260903042503 60 289 0.0 0.0 0.00 0.00 0.00 87 1023.6
20260903041654 60 289 0.0 0.0 0.00 0.00 0.00 87 1023.6
20260903041503 61 289 0.0 0.0 0.00 0.00 0.00 86 1023.6
20260903040708 61 289 0.0 0.0 0.00 0.00 0.00 86 1023.5
20260903040155 61 289 0.0 0.0 0.00 0.00 0.00 86 1023.6
20260903035654 61 289 0.0 0.0 0.00 0.00 0.00 86 1023.6
20260903035153 62 289 0.0 0.0 0.00 0.00 0.00 85 1023.5
20260903034657 62 289 0.0 0.0 0.00 0.00 0.00 85 1023.6
20260903034152 62 289 0.0 0.0 0.00 0.00 0.00 85 1023.7
20260903033936 62 289 0.0 0.0 0.00 0.00 0.00 84 1023.6
20260903033156 62 289 0.0 0.0 0.00 0.00 0.00 84 1023.6
20260903032653 62 289 0.0 0.0 0.00 0.00 0.00 83 1023.6
20260903032155 63 289 0.0 0.0 0.00 0.00 0.00 82 1023.6
20260903031652 63 289 0.0 0.0 0.00 0.00 0.00 82 1023.7
20260903031154 63 289 0.0 0.0 0.00 0.00 0.00 82 1023.6
20260903030655 64 289 0.0 0.0 0.00 0.00 0.00 81 1023.6
20260903030152 64 289 0.0 0.0 0.00 0.00 0.00 81 1023.7
20260903025651 64 289 0.0 0.0 0.00 0.00 0.00 79 1023.7
20260903025151 65 289 0.0 0.0 0.00 0.00 0.00 79 1023.7
20260903024748 65 289 0.0 0.0 0.00 0.00 0.00 78 1023.8
20260903023652 66 286 0.0 1.0 0.00 0.00 0.00 77 1023.7
20260903023151 66 275 0.0 6.0 0.00 0.00 0.00 77 1023.7
20260903022651 67 279 1.0 6.0 0.00 0.00 0.00 76 1023.7
20260903022151 67 310 2.0 5.0 0.00 0.00 0.00 76 1023.7
20260903021650 67 309 1.0 4.0 0.00 0.00 0.00 76 1023.7
20260903021152 67 285 2.0 4.0 0.00 0.00 0.00 76 1023.6
20260903020650 67 285 2.0 3.0 0.00 0.00 0.00 75 1023.7
20260903020518 67 303 1.0 3.0 0.00 0.00 0.00 74 1023.6
20260903020001 67 296 1.0 3.0 0.00 0.00 0.00 73 1023.6
20260903015151 67 319 1.0 2.0 0.00 0.00 0.00 72 1023.5
20260903014652 67 305 0.0 3.0 0.00 0.00 0.00 72 1023.5
20260903014155 67 299 1.0 3.0 0.00 0.00 0.00 72 1023.6
20260903013650 67 279 0.0 2.0 0.00 0.00 0.00 73 1023.6
20260903013150 67 289 1.0 2.0 0.00 0.00 0.00 73 1023.6
20260903012648 66 300 1.0 2.0 0.00 0.00 0.00 73 1023.7
20260903012149 66 295 1.0 1.0 0.00 0.00 0.00 74 1023.6
20260903011654 65 285 0.0 1.0 0.00 0.00 0.00 75 1023.5
20260903011150 65 285 0.0 1.0 0.00 0.00 0.00 77 1023.6
20260903010651 65 283 0.0 1.0 0.00 0.00 0.00 77 1023.6
20260903010149 65 285 0.0 1.0 0.00 0.00 0.00 77 1023.6
20260903005650 65 285 0.0 0.0 0.00 0.00 0.00 77 1023.6
20260903005150 65 283 0.0 0.0 0.00 0.00 0.00 77 1023.7
20260903004649 65 285 0.0 1.0 0.00 0.00 0.00 77 1023.7
20260903004149 65 285 0.0 1.0 0.00 0.00 0.00 76 1023.6
20260903003649 65 285 0.0 1.0 0.00 0.00 0.00 75 1023.7
20260903003150 66 285 0.0 1.0 0.00 0.00 0.00 75 1023.5
20260903002648 66 285 1.0 1.0 0.00 0.00 0.00 75 1023.6
20260903002152 65 283 0.0 0.0 0.00 0.00 0.00 76 1023.6
20260903001648 65 283 0.0 0.0 0.00 0.00 0.00 75 1023.7
20260903001148 65 283 0.0 0.0 0.00 0.00 0.00 75 1023.7
20260903000649 65 282 0.0 1.0 0.00 0.00 0.00 75 1023.6
20260903000146 65 283 0.0 1.0 0.00 0.00 0.00 77 1023.7
20260902235649 65 283 0.0 1.0 0.00 0.00 0.00 77 1023.7
20260902235150 65 283 1.0 1.0 0.00 0.00 0.00 76 1023.6
20260902234648 66 283 1.0 1.0 0.00 0.00 0.00 74 1023.6
20260902234147 66 283 1.0 1.0 0.00 0.00 0.00 74 1023.6
20260902233648 67 283 0.0 1.0 0.00 0.00 0.00 73 1023.5
20260902233502 67 283 0.0 1.0 0.00 0.00 0.00 73 1023.6
20260902232648 67 283 0.0 1.0 0.00 0.00 0.00 72 1023.5
20260902232147 67 283 0.0 1.0 0.00 0.00 0.00 73 1023.5
20260902231649 67 283 1.0 2.0 0.00 0.00 0.00 73 1023.4
20260902231148 67 283 1.0 2.0 0.00 0.00 0.00 73 1023.5
20260902230747 67 282 1.0 2.0 0.00 0.00 0.00 72 1023.5
20260902225648 68 285 2.0 2.0 0.00 0.00 0.00 71 1023.4
20260902225147 68 285 2.0 2.0 0.00 0.00 0.00 70 1023.4
20260902224647 68 285 2.0 2.0 0.00 0.00 0.00 70 1023.3
20260902224147 68 285 2.0 2.0 0.00 0.00 0.00 70 1023.3
20260902223649 68 285 2.0 2.0 0.00 0.00 0.00 70 1023.3
20260902223157 68 285 2.0 2.0 0.00 0.00 0.00 69 1023.3
20260902222646 69 285 2.0 2.0 0.00 0.00 0.00 69 1023.4
20260902222145 69 285 2.0 2.0 0.00 0.00 0.00 68 1023.3
20260902221648 69 285 2.0 2.0 0.00 0.00 0.00 67 1023.4
20260902221145 70 285 2.0 2.0 0.00 0.00 0.00 67 1023.4
20260902220646 70 286 2.0 2.0 0.00 0.00 0.00 66 1023.4
20260902220146 71 285 2.0 2.0 0.00 0.00 0.00 64 1023.3
20260902215644 71 285 2.0 2.0 0.00 0.00 0.00 63 1023.3
20260902215145 72 286 2.0 2.0 0.00 0.00 0.00 63 1023.2
20260902214645 72 285 2.0 2.0 0.00 0.00 0.00 62 1023.2